Notices

What's New in latest Release from April 7th, 2021:

- Updated Glossary, including Speed of Maximum Gust, and Total Hourly Precipitation

- Updated national and regional climate services offices contacts and prices information

- Addition of station inventory lists for 1981-2010, 1971-2000, and 1961-1990 Normals.

If you haven't already, please take our survey and provide feedback about our website: https://eccc.sondage-survey.ca/f/LanguageSelection.aspx?s=442ca660-fcf1-47c0-95a9-59707d6fd709

Hourly Data Report for October 23, 2019

CORAL HARBOUR A
NUNAVUT
Current Station Operator: NAVCAN

64°11'36.000" N
83°21'34.000" W
62.20 m
2301002
71915
YZS

Download Data

Hourly Data (October 2019)
Hourly Data Report for October 23, 2019
TIME
LST
Temp Definition
°C
Dew Point Definition
°C
Rel Hum Definition
%
Precip. Amount Definition
mm

Wind Dir Definition
10's deg

Wind Spd Definition
km/h
Visibility Definition
km
Stn Press Definition
kPa
Hmdx Definition


Wind Chill Definition


Weather Definition


00:00 -2.0 -3.9 87   6 21 24.1 100.99   -8 LegendNANA
01:00 -1.6 -4.2 82   6 28 24.1 100.85   -8 Cloudy
02:00 -1.9 -3.6 88   5 33 24.1 100.78   -9 LegendNANA
03:00 -1.6 -4.0 84   3 39 24.1 100.59   -9 LegendNANA
04:00 -1.4 -3.7 84   3 41 24.1 100.49   -9 Cloudy
05:00 -1.1 -3.6 83   6 36 24.1 100.49   -9 LegendNANA
06:00 -0.9 -3.2 85   5 42 24.1 100.38   -9 LegendNANA
07:00 -0.8 -3.0 85   5 43 24.1 100.20   -9 Cloudy
08:00 -0.5 -2.8 84   5 52 24.1 100.08   -9 LegendNANA
09:00 -0.5 -2.2 88   5 47 4.8 99.98   -9 Snow,Blowing Snow
10:00 -0.2 -1.6 91   5 45 1.6 99.89   -8 Snow,Blowing Snow
11:00 0.0 -1.5 90   4 47 1.6 99.68   -8 Snow,Blowing Snow
12:00 -0.2 -1.1 94   7 44 1.6 99.59   -8 Snow,Blowing Snow
13:00 -0.4 -1.0 95   6 47 0.8 99.48   -8 Moderate Snow,Blowing Snow
14:00 -0.5 -1.2 95   5 43 0.8 99.41   -8 Moderate Snow,Blowing Snow
15:00 -0.4 -1.1 95   5 37 0.8 99.29   -8 Moderate Snow,Blowing Snow
16:00 -0.3 -1.2 94   5 42 1.6 99.23   -8 Snow,Blowing Snow
17:00 -0.4 -1.3 94   6 40 1.6 99.19   -8 Snow,Blowing Snow
18:00 -0.4 -1.3 94   6 37 1.6 99.14   -8 Snow,Blowing Snow
19:00 -0.2 -1.5 91   5 30 1.6 99.09   -7 Snow,Blowing Snow
20:00 -0.1 -1.8 89   5 27 24.1 99.06   -6 Snow,Blowing Snow
21:00 -0.1 -1.7 89   5 29 24.1 98.97   -6 Snow
22:00 0.0 -1.8 88   4 31 24.1 98.88   -7 Snow
23:00 -0.2 -1.4 92   5 39 9.7 98.76   -8 Snow

Notes on Data Quality.

Legend

  • E = Estimated
  • M = Missing
  • NA = Not Available*
  • [empty] = Indicates an unobserved value
Date modified: